Simultaneous Nadir Overpasses (SNOs) Predictions

Prediction of SNOs between AQUA and METOP-C Satellite Orbit:

Table of predicted SNOs for the next 14.0 days since TLE Epoch: 8/19/2023
Index Date (AQUA) Time (AQUA) Lat,Lon (AQUA) SZA (AQUA ) Date (METOP-C) Time (METOP-C) Lat,Lon (METOP-C) SZA (METOP-C ) Distance(km) Time Diff (sec)
1 08/21/2023 17:51:17 74.71, -91.67 62.66 08/21/2023 17:50:54 74.69, -91.65 62.65 1.63 23
2 08/21/2023 18:40:42 -74.78, 75.80 117.26 08/21/2023 18:41:34 -74.74, 75.81 117.30 3.74 52
3 08/24/2023 10:54:06 -74.67,-167.25 116.48 08/24/2023 10:53:11 -74.68,-167.25 116.46 1.94 55
4 08/24/2023 11:43:32 74.73, 0.23 63.61 08/24/2023 11:43:50 74.76, 0.28 63.63 3.25 18
5 08/27/2023 03:56:47 74.17, 118.28 63.93 08/27/2023 03:55:40 74.11, 115.67 63.94 79.74 67
6 08/27/2023 04:46:22 -74.74, -75.47 115.46 08/27/2023 04:46:08 -74.74, -75.35 115.46 3.61 14
7 08/27/2023 05:35:47 74.76, 92.13 64.58 08/27/2023 05:36:48 74.77, 92.05 64.58 2.31 61
8 08/29/2023 21:49:11 74.71,-151.07 65.47 08/29/2023 21:48:26 74.69,-151.06 65.45 2.05 45
9 08/29/2023 22:38:36 -74.77, 16.43 114.46 08/29/2023 22:39:05 -74.79, 16.53 114.45 3.45 29
10 09/01/2023 14:51:58 -74.67, 133.36 113.61 09/01/2023 14:50:45 -74.61, 133.14 113.66 9.66 73
11 09/01/2023 15:41:24 74.75, -59.18 66.49 09/01/2023 15:41:23 74.73, -59.20 66.47 1.83 1



Historial Predications of SNOs between AQUA and METOP-C
